User: anonymous   Login
Location: Unspecified
(0.0000°N, 0.0000°E)
Time: 02:52:48
(UTC+00:00)
Language:

AO-27 - Orbit

View from above orbital plane
View from above orbital plane
View from above satellite
View from above satellite

Ground track
Ground track

The orbit data is extracted from the following two-line orbital elements,

1 22825U 93061C   17232.49483411 -.00000006 +00000-0 +15524-4 0  9995
2 22825 098.8184 198.8880 0009065 137.9465 222.2414 14.30003193246324
Epoch (UTC): 20 August 2017 11:52:33
Eccentricity: 0.0009065
inclination: 98.8184°
perigee height: 785 km
apogee height: 798 km
right ascension of ascending node: 198.8880°
argument of perigee: 137.9465°
revolutions per day: 14.30003193
mean anomaly at epoch: 222.2414°
orbit number at epoch: 24632

The dashed part of the orbit path shows where the satellite is in the earth's shadow,  

DLR